Location: Eitze
(52.9840°N, 9.6894°E)
Time: 06:03:23
(UTC+00:00)

PSLV R/B - Pass Details

Date: 19 May 2025
Orbit: 586 x 683 km, 97.9° (Epoch: 22 June)

Event Time Altitude Azimuth Distance (km) Brightness Sun altitude
Rises 22:39:20 0° 19° (NNE) 2,854 8.1 -16.6°
Reaches altitude 10° 22:41:36 10° 26° (NNE) 1,938 6.9 -16.6°
Maximum altitude 22:45:37 44° 99° (E) 822 4.0 -16.7°
Enters shadow 22:47:06 31° 148° (SSE) 1,045 4.2 -16.7°
